Location: Austin
(30.3000°N, 97.7500°W)
Time: 07:34:36
(UTC-05:00)

Cosmos 836 Rocket - Pass Details

Date: 16 June 2025
Orbit: 753 x 774 km, 74.1° (Epoch: 07 July)

Event Time Altitude Azimuth Distance (km) Brightness Sun altitude
Rises 04:12:40 0° 343° (NNW) 3,232 8.2 -23.9°
Reaches altitude 10° 04:15:02 10° 343° (NNW) 2,306 7.4 -23.6°
Maximum altitude 04:20:17 87° 257° (WSW) 774 4.4 -22.8°
Enters shadow 04:22:26 37° 168° (SSE) 1,180 5.2 -22.5°
